When you browse on this site, cookies collect data to enhance your experience and personalize the content and advertising you see.
Visit our Privacy Policy to learn more. By continuing to use the site, you agree to this use of cookies and data.
  • In Spain
  • List of Countries
  • For 7 days
  • Water Temperature
  • Satellite Maps
  • Weather Map
  • Weather Widgets
  • user-avatar
    Login

    Hourly Weather Saurimo

    Today, 16 December, Sunday

    Time Temperature Precipitation Wind Pressure Humidity
    00:00 +21°C° 0.3 mm 1 mps 671 mmHg 96%
    01:00 +21°C° 0 mm 1 mps 671 mmHg 96%
    02:00 +20°C° 0.1 mm 1 mps 671 mmHg 96%
    03:00 +20°C° 0.1 mm 1 mps 671 mmHg 97%
    04:00 +20°C° 0.1 mm 1 mps 671 mmHg 97%
    05:00 +21°C° 0 mm 1 mps 671 mmHg 95%
    06:00 +21°C° 0 mm 1 mps 672 mmHg 94%
    07:00 +21°C° 0 mm 2 mps 672 mmHg 92%
    08:00 +23°C° 0.9 mm 2 mps 672 mmHg 89%
    09:00 +25°C° 0.9 mm 2 mps 672 mmHg 86%
    10:00 +26°C° 0.9 mm 3 mps 672 mmHg 84%
    11:00 +26°C° 1.5 mm 3 mps 672 mmHg 85%
    12:00 +26°C° 1.5 mm 3 mps 671 mmHg 85%
    13:00 +26°C° 1.5 mm 3 mps 671 mmHg 86%
    14:00 +25°C° 0.9 mm 3 mps 670 mmHg 88%
    15:00 +25°C° 0.9 mm 2 mps 670 mmHg 89%
    16:00 +25°C° 0.9 mm 2 mps 670 mmHg 91%
    17:00 +24°C° 0.6 mm 2 mps 670 mmHg 92%
    18:00 +23°C° 0.6 mm 2 mps 670 mmHg 94%
    19:00 +21°C° 0.6 mm 1 mps 671 mmHg 96%
    20:00 +21°C° 0.8 mm 1 mps 671 mmHg 96%
    21:00 +21°C° 0.8 mm 1 mps 671 mmHg 96%
    22:00 +21°C° 0.8 mm 1 mps 672 mmHg 97%
    23:00 +21°C° 0.5 mm 1 mps 671 mmHg 97%

    Tomorrow, 17 December, Monday

    Time Temperature Precipitation Wind Pressure Humidity
    00:00 +20°C° 0.5 mm 1 mps 671 mmHg 97%
    01:00 +20°C° 0.5 mm 1 mps 671 mmHg 97%
    02:00 +20°C° 0.1 mm 1 mps 671 mmHg 97%
    03:00 +20°C° 0.1 mm 1 mps 670 mmHg 97%
    04:00 +20°C° 0.1 mm 1 mps 670 mmHg 98%
    05:00 +19°C° 0 mm 2 mps 671 mmHg 97%
    06:00 +20°C° 0 mm 2 mps 671 mmHg 96%
    07:00 +20°C° 0 mm 2 mps 672 mmHg 95%
    08:00 +21°C° 0.6 mm 3 mps 672 mmHg 91%
    09:00 +22°C° 0.6 mm 3 mps 672 mmHg 88%
    10:00 +24°C° 0.6 mm 3 mps 672 mmHg 85%
    11:00 +25°C° 0.6 mm 3 mps 672 mmHg 82%
    12:00 +26°C° 0.6 mm 3 mps 671 mmHg 79%
    13:00 +26°C° 0.6 mm 3 mps 671 mmHg 76%
    14:00 +26°C° 0.8 mm 3 mps 671 mmHg 80%
    15:00 +26°C° 0.8 mm 3 mps 670 mmHg 83%
    16:00 +25°C° 0.8 mm 3 mps 670 mmHg 87%
    17:00 +24°C° 0.7 mm 2 mps 670 mmHg 90%
    18:00 +21°C° 0.7 mm 2 mps 670 mmHg 93%
    19:00 +20°C° 0.7 mm 2 mps 671 mmHg 96%
    20:00 +20°C° 0 mm 2 mps 671 mmHg 96%
    21:00 +20°C° 0 mm 1 mps 671 mmHg 97%
    22:00 +20°C° 0 mm 1 mps 671 mmHg 97%
    23:00 +20°C° 0 mm 1 mps 671 mmHg 97%

    Day after tomorrow, 18 December, Tuesday

    Time Temperature Precipitation Wind Pressure Humidity
    00:00 +19°C° 0 mm 2 mps 671 mmHg 97%
    01:00 +18°C° 0 mm 2 mps 670 mmHg 97%
    02:00 +18°C° 0 mm 2 mps 670 mmHg 97%
    03:00 +19°C° 0 mm 1 mps 670 mmHg 97%
    04:00 +19°C° 0 mm 1 mps 670 mmHg 97%
    05:00 +19°C° 0 mm 2 mps 670 mmHg 95%
    06:00 +20°C° 0 mm 2 mps 671 mmHg 94%
    07:00 +20°C° 0 mm 2 mps 672 mmHg 92%
    08:00 +21°C° 0.3 mm 2 mps 672 mmHg 88%
    09:00 +24°C° 0.3 mm 2 mps 672 mmHg 84%
    10:00 +25°C° 0.3 mm 3 mps 672 mmHg 79%
    11:00 +26°C° 0.6 mm 3 mps 672 mmHg 76%
    12:00 +27°C° 0.6 mm 3 mps 671 mmHg 73%
    13:00 +27°C° 0.6 mm 3 mps 671 mmHg 70%
    14:00 +27°C° 0.4 mm 3 mps 670 mmHg 71%
    15:00 +27°C° 0.4 mm 3 mps 670 mmHg 72%
    16:00 +27°C° 0.4 mm 2 mps 669 mmHg 74%
    17:00 +25°C° 0.4 mm 2 mps 670 mmHg 80%
    18:00 +23°C° 0.4 mm 2 mps 670 mmHg 87%
    19:00 +21°C° 0.4 mm 1 mps 670 mmHg 94%
    20:00 +21°C° 0 mm 1 mps 670 mmHg 95%
    21:00 +21°C° 0 mm 1 mps 671 mmHg 95%
    22:00 +20°C° 0 mm 1 mps 671 mmHg 96%
    23:00 +20°C° 0 mm 1 mps 670 mmHg 97%

    19 December, Wednesday

    Time Temperature Precipitation Wind Pressure Humidity
    00:00 +20°C° 0 mm 1 mps 670 mmHg 97%
    01:00 +19°C° 0 mm 1 mps 669 mmHg 98%
    02:00 +19°C° 0 mm 1 mps 669 mmHg 98%
    03:00 +19°C° 0 mm 1 mps 669 mmHg 98%
    04:00 +19°C° 0 mm 1 mps 669 mmHg 98%
    05:00 +19°C° 0 mm 2 mps 670 mmHg 96%
    06:00 +19°C° 0 mm 2 mps 670 mmHg 94%
    07:00 +20°C° 0 mm 2 mps 671 mmHg 93%
    08:00 +22°C° 0.2 mm 3 mps 671 mmHg 85%
    09:00 +25°C° 0.2 mm 3 mps 672 mmHg 78%
    10:00 +27°C° 0.2 mm 3 mps 672 mmHg 70%
    11:00 +28°C° 0.5 mm 3 mps 671 mmHg 66%
    12:00 +28°C° 0.5 mm 4 mps 671 mmHg 63%
    13:00 +29°C° 0.5 mm 4 mps 670 mmHg 59%
    14:00 +28°C° 0.9 mm 3 mps 670 mmHg 68%
    15:00 +27°C° 0.9 mm 3 mps 669 mmHg 76%
    16:00 +26°C° 0.9 mm 3 mps 669 mmHg 85%
    17:00 +24°C° 0.9 mm 2 mps 669 mmHg 88%
    18:00 +23°C° 0.9 mm 2 mps 669 mmHg 91%
    19:00 +21°C° 0.9 mm 1 mps 670 mmHg 94%
    20:00 +21°C° 0.3 mm 1 mps 670 mmHg 95%
    21:00 +20°C° 0.3 mm 2 mps 670 mmHg 95%
    22:00 +20°C° 0.3 mm 2 mps 671 mmHg 96%
    23:00 +19°C° 0.1 mm 2 mps 670 mmHg 96%

    20 December, Thursday

    Time Temperature Precipitation Wind Pressure Humidity
    00:00 +20°C° 0.1 mm 1 mps 669 mmHg 97%
    01:00 +20°C° 0.1 mm 1 mps 669 mmHg 97%
    02:00 +20°C° 0.1 mm 1 mps 669 mmHg 97%
    03:00 +20°C° 0.1 mm 1 mps 669 mmHg 97%
    04:00 +20°C° 0.1 mm 1 mps 669 mmHg 97%
    05:00 +20°C° 0 mm 1 mps 669 mmHg 96%
    06:00 +20°C° 0 mm 2 mps 670 mmHg 95%
    07:00 +20°C° 0 mm 2 mps 671 mmHg 94%
    08:00 +23°C° 0 mm 2 mps 671 mmHg 88%
    09:00 +24°C° 0 mm 2 mps 671 mmHg 81%
    10:00 +26°C° 0 mm 3 mps 671 mmHg 75%
    11:00 +26°C° 0.6 mm 3 mps 671 mmHg 75%
    12:00 +27°C° 0.6 mm 3 mps 670 mmHg 75%
    13:00 +27°C° 0.6 mm 3 mps 670 mmHg 75%
    14:00 +27°C° 0.8 mm 2 mps 669 mmHg 78%
    15:00 +26°C° 0.8 mm 2 mps 669 mmHg 80%
    16:00 +26°C° 0.8 mm 2 mps 669 mmHg 83%
    17:00 +25°C° 0.7 mm 2 mps 669 mmHg 87%
    18:00 +23°C° 0.7 mm 2 mps 669 mmHg 91%
    19:00 +21°C° 0.7 mm 2 mps 669 mmHg 95%
    20:00 +20°C° 0.1 mm 2 mps 670 mmHg 96%
    21:00 +20°C° 0.1 mm 2 mps 670 mmHg 96%
    22:00 +20°C° 0.1 mm 2 mps 670 mmHg 97%
    23:00 +19°C° 0 mm 2 mps 670 mmHg 97%

    21 December, Friday

    Time Temperature Precipitation Wind Pressure Humidity
    00:00 +19°C° 0 mm 2 mps 669 mmHg 97%
    01:00 +19°C° 0 mm 2 mps 669 mmHg 98%
    02:00 +19°C° 0.1 mm 2 mps 669 mmHg 98%
    03:00 +19°C° 0.1 mm 2 mps 669 mmHg 98%
    04:00 +19°C° 0.1 mm 2 mps 669 mmHg 98%
    05:00 +19°C° 0.2 mm 2 mps 669 mmHg 97%
    06:00 +19°C° 0.2 mm 2 mps 670 mmHg 97%
    07:00 +19°C° 0.2 mm 2 mps 670 mmHg 96%
    08:00 +20°C° 0.7 mm 2 mps 670 mmHg 96%
    09:00 +21°C° 0.7 mm 1 mps 670 mmHg 96%
    10:00 +21°C° 0.7 mm 1 mps 670 mmHg 96%
    11:00 +22°C° 0.9 mm 1 mps 670 mmHg 94%
    12:00 +21°C° 0.9 mm 2 mps 670 mmHg 91%
    13:00 +23°C° 0.9 mm 2 mps 669 mmHg 89%
    14:00 +24°C° 0.5 mm 2 mps 669 mmHg 86%
    15:00 +24°C° 0.5 mm 2 mps 669 mmHg 84%
    16:00 +25°C° 0.5 mm 2 mps 669 mmHg 81%
    17:00 +24°C° 0.2 mm 2 mps 669 mmHg 85%
    18:00 +21°C° 0.2 mm 2 mps 669 mmHg 90%
    19:00 +21°C° 0.2 mm 1 mps 669 mmHg 95%
    20:00 +20°C° 0 mm 1 mps 669 mmHg 95%
    21:00 +20°C° 0 mm 1 mps 669 mmHg 96%
    22:00 +20°C° 0 mm 1 mps 670 mmHg 97%
    23:00 +19°C° 0 mm 1 mps 669 mmHg 97%
    Show more